Regional Weather Roundup
Issued by NWS

Home | Current Version | Previous Version | Text Only | Print | Product List | Glossary Off
Versions: 1 2 3 4 5 6 7 8 9 10 11 12 13 14 15 16 17 18 19 20 21 22 23 24 25 26 27 28 29 30 31 32 33 34 35 36 37 38 39 40 41 42 43 44 45 46 47 48 49 50

755
ASUS44 KJAN 190910
RWRMS

MISSISSIPPI HOURLY WEATHER ROUNDUP
NATIONAL WEATHER SERVICE JACKSON MS
400 AM CDT SUN APR 19 2015

NOTE: "FAIR: INDICATES FEW OR NO CLOUDS BELOW 12,000 FEET WITH NO
SIGNIFICANT WEATHER AND/OR OBSTRUCTIONS TO VISIBILITY.

MSZ001>002-007>008-010>013-018>021-025>028-034>036-191000-
NORTHWEST MISSISSIPPI

CITY           SKY/WX    TMP DP  RH WIND       PRES   REMARKS
CLARKSDALE     CLOUDY    66  66 100 S12       29.69F
CLEVELAND      CLOUDY    66  66 100 S10       29.70F
GREENWOOD      CLOUDY    65  63  93 S3        29.72S
GREENVILLE     CLOUDY    67  65  93 SW10      29.70F
OLIVE BRANCH   CLOUDY    63 N/A N/A S6        29.71F
OXFORD         FAIR      63  63 100 S6        29.72F FOG
TUNICA         RAIN      64  63  94 S3        29.70F
$$

MSZ003>006-009-014>017-022>024-029>033-037>039-191000-
NORTHEAST MISSISSIPPI

CITY           SKY/WX    TMP DP  RH WIND       PRES   REMARKS
COLUMBUS AFB   LGT RAIN  64  64 100 W6        29.71R
CORINTH        RAIN      66  64  94 CALM      29.71F
GOLDN TRIANGLE CLOUDY    64  63  94 SW7       29.71F
STARKVILLE     LGT RAIN  63  61  94 CALM      29.72S
TUPELO         LGT RAIN  65  63  93 SW3       29.72F FOG
$$

MSZ040-058-191000-
CENTRAL MISSISSIPPI

CITY           SKY/WX    TMP DP  RH WIND       PRES   REMARKS
JACKSON INTL   CLOUDY    66  64  93 S3        29.75S
JACKSON HAWKNS TSTM      66  64  93 S3        29.75S
MERIDIAN KEY   RAIN      66  64  93 NW8       29.77S FOG
MERIDIAN NAS   HVY RAIN  66  63  90 W9        29.78R FOG
RAYMOND        CLOUDY    66  61  82 CALM      29.74F
VICKSBURG      TSTM      66  64  93 SW13G24   29.74R FOG
$$

MSZ059>079-191000-
SOUTH MISSISSIPPI

CITY           SKY/WX    TMP DP  RH WIND       PRES   REMARKS
BROOKHAVEN     CLOUDY    70  70 100 S7        29.79S
HATTIESBURG    CLOUDY    70  67  90 S6        29.79F
MCCOMB         CLOUDY    69  68  96 SW8       29.78F
NATCHEZ        CLOUDY    70  66  88 SW9G16    29.77R
PINE BELT      CLOUDY    68  -9   4 S7        29.79F
$$

MSZ080>082-191000-
COASTAL MISSISSIPPI

CITY           SKY/WX    TMP DP  RH WIND       PRES   REMARKS
BILOXI         MOCLDY    73  72  97 SW13      29.79S
PASCAGOULA     MOCLDY    72  70  93 S6        29.79F
GULFPORT       CLOUDY    73  69  87 S6        29.79S
$$



USA.gov is the U.S. government's official web portal to all federal, state and local government web resources and services.